Regional Weather Roundup
Issued by NWS

Home | Current Version | Previous Version | Graphics & Text | Print | Product List | Glossary On
Versions: 1 2 3 4 5 6 7 8 9 10 11 12 13 14 15 16 17 18 19 20 21 22 23 24 25 26 27 28 29 30 31 32 33 34 35 36 37 38 39 40 41 42 43 44 45 46 47 48 49 50
000
ASUS43 KOAX 271610
RWRNE

WEATHER ROUNDUP FOR NEBRASKA
NATIONAL WEATHER SERVICE OMAHA NE
1000 AM CST THU NOV 27 2014

NOTES: SATELLITE DATA IS BEING USED TO AUGMENT CLOUD COVER ABOVE
       12000 FEET.
       "FAIR" INDICATES FEW OR NO CLOUDS BELOW 12,000 FEET WITH NO
       SIGNIFICANT WEATHER AND/OR OBSTRUCTIONS TO VISIBILITY.

  * THESE STATIONS DO NOT REPORT WEATHER SUCH AS RAIN...SNOW OR FOG.

NEZ001>004-019>022-054>056-271700-
NEBRASKA PANHANDLE

CITY           SKY/WX    TMP DP  RH WIND       PRES   REMARKS
SCOTTSBLUFF    CLOUDY    22  20  92 E6        30.14F WCI  14
ALLIANCE       MOSUNNY   27  24  89 S8        30.12F WCI  19
CHADRON        MOSUNNY  N/A N/A N/A CALM      30.10F
KIMBALL        PTSUNNY   37  28  70 SW7       30.15S WCI  31
SIDNEY         MOSUNNY   35  28  75 SW12      30.16S WCI  27
$$

NEZ057>060-069>072-079>082-271700-
SOUTHWEST NEBRASKA

CITY           SKY/WX    TMP DP  RH WIND       PRES   REMARKS
NORTH PLATTE   MOSUNNY   28  19  69 S9        30.25F WCI  19
IMPERIAL       MOSUNNY   29  23  78 E5        30.22F WCI  24
LEXINGTON      MOSUNNY   28  20  72 SE15      30.32F WCI  17
MCCOOK         SUNNY     32  19  58 S10       30.29S WCI  24
OGALLALA       SUNNY    N/A N/A N/A CALM      30.21S
$$

NEZ005>010-023>029-035>040-094-271700-
NORTH CENTRAL NEBRASKA

CITY           SKY/WX    TMP DP  RH WIND       PRES   REMARKS
VALENTINE      PTSUNNY   27  18  69 S16       30.20F WCI  15
AINSWORTH      PTSUNNY   23  16  75 SE17      30.23F WCI   9
BROKEN BOW     MOSUNNY   26  16  65 S21G28    30.29F WCI  12
O`NEILL        CLOUDY    20  11  68 SE12      30.35F WCI   9
ORD            CLOUDY    22  13  68 SE10      30.35F WCI  11
THEDFORD       PTSUNNY   28  20  72 S14       30.22F WCI  17
$$

NEZ041-046>049-061>064-073>077-083>087-271700-
SOUTH CENTRAL NEBRASKA

CITY           SKY/WX    TMP DP  RH WIND       PRES   REMARKS
GRAND ISLAND   SUNNY     23  10  57 SE13      30.43F WCI  11
AURORA         SUNNY     22  12  64 SE10      30.44F WCI  11
HASTINGS       MOSUNNY   22  11  62 S13       30.42F WCI  10
HEBRON         SUNNY     23  12  64 E3        30.50S
HOLDREGE       SUNNY     26  19  74 SE16      30.36F WCI  13
KEARNEY *      MOSUNNY   25  16  68 SE17      30.38F WCI  11
YORK           SUNNY     21  10  63 S10       30.45F WCI  10
$$

NEZ011>018-030>034-042>045-271700-
NORTHEAST NEBRASKA

CITY           SKY/WX    TMP DP  RH WIND       PRES   REMARKS
NORFOLK        CLOUDY    17  10  74 SE8       30.46S WCI   7
ALBION         CLOUDY    21  10  63 SE7       30.42F WCI  12
BLAIR          CLOUDY    16   6  65 CALM      30.51S
COLUMBUS *     PTSUNNY   19   9  63 SE7       30.49R WCI  10
FREMONT        CLOUDY    16   4  59 NE6       30.52S WCI   8
TEKAMAH        CLOUDY    13  -3  49 NE6       30.55S WCI   4
WAYNE          CLOUDY    14   7  75 SE7       30.48F WCI   4
$$

NEZ050>053-065>068-078-088>093-271700-
SOUTHEAST NEBRASKA

CITY           SKY/WX    TMP DP  RH WIND       PRES   REMARKS
LINCOLN        CLOUDY    20  12  71 S7        30.53S WCI  11
OMAHA EPPLEY   CLOUDY    17   4  56 CALM      30.56R
BEATRICE       CLOUDY    20  15  80 CALM      30.51F
FALLS CITY     CLOUDY    22   9  57 N5        30.55R WCI  16
NEBRASKA CITY  CLOUDY    19   9  64 E3        30.53S
PLATTSMOUTH    CLOUDY    18  10  71 NE3       30.53S
$$

NEZ044-045-051>053-067-271700-
OMAHA AREA

CITY           SKY/WX    TMP DP  RH WIND       PRES   REMARKS
OMAHA EPPLEY   CLOUDY    17   4  56 CALM      30.56R
BLAIR          CLOUDY    16   6  65 CALM      30.51S
FREMONT        CLOUDY    16   4  59 NE6       30.52S WCI   8
MILLARD        CLOUDY    19  10  70 CALM      30.54S
OFFUTT AFB     PTSUNNY   17   9  69 E3        30.54R
PLATTSMOUTH    CLOUDY    18  10  71 NE3       30.53S
WAHOO          CLOUDY    18  12  77 E7        30.52S WCI   9
$$


USA.gov is the U.S. government's official web portal to all federal, state and local government web resources and services.